Погода в Даниловке

Погода в Даниловке : погода сейчас, прогноз погоды и архив. Всё, что Вы хотите узнать о погоде в Даниловке!

Хотите узнать прогноз погоды в Даниловке? Тогда Вам сюда: Погода в Даниловке

Поиск расширенной информации на нашем сайте:

Другие новости

Новости СМИ2

Главная страница сайта

Новости сайта

03.07.2017

Напоминаем, что на нашем специализированном сайте Метеоцентр.Азия вы можете получить высокодетализированные автоматические прогнозы погоды по пунктам России, СНГ и мира в авиационном формате (включающие направление и скорость ветра, видимость, явления погоды, количество и форму облачности, нижнюю и верхнюю границу облачности).


Погода в Даниловке - сегодня

Время (UTC), дата Ветер
(°,м/с) 
Видим.   Явления Облачность Т
(°С)
Тd
(°С)
f(%) Тe
(°С)
Pmin
(гПа)
dP
(гПа)
Po
(мм)
O2
(г/м3)
Тmin Tmax R s Состояние
почвы
00 19.09.17 200 (Ю) 2{11}  20000 м    ясно 
+19.7 +7.8 46 +21  1015  0.4  752  281           
03 19.09.17 270 (З) 20000 м    ясно 
+13.7 +7.8 67 +15  1015.9  0.6  753  287  +12.2        сухая 
06 19.09.17 210 (ЮЗ) 20000 м    ясно 
+25.5 +6.8 30 +26  1016  0.6  753  276           
09 19.09.17 190 (Ю) 6-10{10}  20000 м    ясно 
+31.7 +1.8 15 +32  1015.1  -0.6  753  271           
12 19.09.17 200 (Ю) 4{10}  20000 м    ясно 
+32.5 +1 13 +33  1014.8  -0.3  752  271           
15 19.09.17 тихо ()   20000 м    ясно 
+26 +7.1 30 +26  1015.1  0.1  752  276    +32.7       
18 19.09.17 010 (С) 20000 м    ясно 
+20.3 +10.2 52 +22  1016.5  1.1  753  281           
21 19.09.17 010 (С) 20000 м    ясно 
+16.5 +9.3 62 +17  1017.2  0.6  754  285           
00 20.09.17 020 (С) 20000 м    ясно 
+15 +7.3 60 +16  1017.5  0.2  754  287           
03 20.09.17 060 (СВ) 20000 м    ясно 
+11.7 +6.5 70 +13  1018.3  0.6  754  290  +11.7        сухая 
06 20.09.17 060 (СВ) 20000 м    ясно 
+21.4 +6.6 38 +21  1018.5  0.6  755  281  +11.6         
09 20.09.17 030 (СВ) 20000 м    ясно 
+28.5 +7.1 26 +29  1017.7  -0.5  755  274           
12 20.09.17 040 (СВ) 20000 м    ясно 
+30.9 +6.2 21 +31  1016.7  -0.9  754  272           
15 20.09.17 030 (СВ) 4{10}  20000 м    10/0 верхняя 
[Cs]
+25 +7.3 32 +25  1017.5  0.6  754  277    +31       
18 20.09.17 050 (СВ) 20000 м    6/0 средняя, верхняя 
[Ac trans|Ci fib]
+20.5 +7.2 42 +21  1018.5  0.8  755  282           
21 20.09.17 050 (СВ) 20000 м    ясно 
+17.9 +6.8 48 +19  1018.9  0.2  755  284           
00 21.09.17 050 (СВ) 20000 м    ясно 
+16.6 +5 46 +17  1019.2  0.3  755  286           
03 21.09.17 060 (СВ) 20000 м    ясно 
+14.1 +5.7 57 +14  1020.1  0.8  756  289  +14.1        сухая 
06 21.09.17 080 (В) 20000 м    ясно 
+19.8 +6.4 42 +20  1020.2  0.4  756  283           
09 21.09.17 070 (В) 20000 м    ясно 
+27.2 +5.9 26 +27  1019.3  -0.7  756  276           
12 21.09.17 080 (В) 5{10}  20000 м    ясно 
+29.6 +4.9 21 +30  1018.7  -0.5  755  274           
15 21.09.17 070 (В) 3{10}  20000 м    ясно 
+24.5 +4.7 28 +25  1019.5  0.6  756  279    +29.9       
18 21.09.17 070 (В) 20000 м    ясно 
+19.3 +2.8 33 +20  1020.7  756  284           
21 21.09.17 060 (СВ) 20000 м    ясно 
+15.9 +5.4 50 +16  1021.8  0.9  757  287           
00 22.09.17 060 (СВ) 20000 м    ясно 
+13.7 +6.5 62 +13  1022.4  0.5  758  290           
Время (UTC), дата Ветер
(°,м/с) 
Видим.   Явления Облачность Т
(°С)
Тd
(°С)
f(%) Тe
(°С)
Pmin
(гПа)
dP
(гПа)
Po
(мм)
O2
(г/м3)
Тmin Tmax R s Состояние
почвы

Для получения пояснительной информации подведите курсор к названию столбца.

ПОГОДА в Даниловке - архив

Всё, что Вы хотите узнать о погоде в Даниловке - удобно и подробно!

Выберите нужную дату (начиная с 1 января 2015* года) и нажмите кнопку "Найти".
Будут отображены архивные сводки погоды по пункту Даниловка, начиная с указанной даты.


Отображать данные в формате CSV (для использования в таблицах Excel)


Внимание! Наш архив погоды предназначен исключительно для личного некоммерческого использования в познавательных целях. Если Вам необходимы официальные справки о состоянии погоды (для производственных, юридических, коммерческих и т.п. целей), обращайтесь в органы Росгидромета.

*Примечание: данная дата относится к архиву по метеостанциям СССР (Россия, СНГ, Балтия).
Архив по метеостанциям Зарубежной Европы и Азии (кроме Китая) хранится 10 дней, по другим регионам земного шара (Китай, Африка, Америка, Австралия, Океания) - 1 день.

Даниловка - район местоположения метеостанции


Название, широта, долгота, высота метеостанции:
Даниловка 50.4°ш. 44.1°д. 102 м над ур. моря [Российская Федерация]

Дополнительная информация

В oтличие oт бoльшинства пoгoдных сайтoв мы публикуем пoдрoбную метеoинфoрмацию в детальнoм прoфессиoнальнoм фoрмате.

Характеристики температуры и влажнoсти вoздуха измеряются на высoте 2 м в тени вдали oт зданий и деревьев.
Скoрoсть ветра измеряется на высoте 10 м (на урoвне рoста челoвека скoрoсть ветра ниже в 1.5-2 раза). Если метеoстанция нахoдится в гoрoде или в лесу, тo скoрoсть ветра занижена на 2-4 м/с пo сравнению с oткрытым местoм. Скoрoсть ветра над акватoриями крупных рек и oзёр, а также на вершинах хoлмoв на 2-5 м/с выше, чем в oбычных услoвиях.
Атмoсфернoе давление в разных тoчках местнoсти мoжет значительнo oтличаться oт давления на метеoстанции, в зависимoсти oт услoвий рельефа (при пoдъёме на 10 м давление пoнижается примернo на 1 мм рт.ст.).